[[{"header":{"parameterUnit":"m.s-1","parameterCategory":1,"la1":30.2991,"la2":30.254,"lo1":-89.0895,"lo2":-89.0444,"dy":0.0017,"dx":0.0017,"nx":28,"ny":28,"refTime":"2023-10-25T03:00:00:Z","depth":0,"parameterNumber":2,"parameterNumberName":"U-component_of_WINDS"},"data":[0,0,0,0,0,0,0,0,0,0,0,0,0,0,0,0,0,0,0,0,0,0,0,0,0,0,0,0,0,0,0,0,0,0,0,0,0,0,0,0,0,0,0,0,0,0,0,0,0,0,0,0,0,0,0,0,0,0,-5.1403,-5.1404,0,-5.146,-5.1461,-5.1461,-5.135,-5.1347,-5.1343,-5.134,-5.1397,-5.1402,-5.1407,0,0,0,0,0,0,0,0,0,0,0,0,0,-5.12,-5.1204,-5.1403,-5.1404,-5.1405,-5.146,-5.1461,-5.1462,-5.1351,-5.1347,-5.1342,-5.1338,-5.1395,-5.1401,-5.1407,0,0,0,0,0,0,0,0,0,0,0,0,0,-5.1276,-5.1206,-5.1403,-5.1356,-5.1353,-5.146,-5.1461,-5.1462,-5.1352,-5.1346,-5.1341,-5.1336,-5.1393,-5.1401,-5.1408,-5.1563,0,0,-5.143,-5.1434,0,0,0,0,0,0,0,0,-5.1271,-5.1283,-5.1363,-5.136,-5.1356,-5.1393,-5.141,-5.1496,-5.1353,-5.1352,-5.1339,-5.1333,-5.14,-5.1406,-5.1429,-5.1566,-5.1568,-5.1431,-5.1436,-5.1439,-5.1441,0,0,0,0,0,0,0,-5.1266,-5.128,-5.1426,-5.1364,-5.136,-5.1333,-5.1337,-5.1426,-5.1406,-5.1352,-5.1344,-5.1352,-5.1397,-5.1422,-5.1429,-5.1569,-5.1431,-5.1437,-5.1442,-5.1445,-5.1836,-5.1842,0,0,0,0,0,0,-5.1267,-5.1276,-5.1424,-5.1427,-5.1299,-5.1341,-5.1346,-5.1386,-5.1405,-5.1402,-5.1357,-5.1347,-5.1412,-5.1421,-5.1431,-5.1613,-5.1439,-5.1446,-5.145,-5.1831,-5.1838,-5.1844,0,0,0,0,0,0,-5.1263,-5.1281,-5.1422,-5.135,-5.1366,-5.135,-5.1396,-5.139,-5.1415,-5.1408,-5.1404,-5.1386,-5.1408,-5.1421,-5.1531,-5.1614,-5.1449,-5.1456,-5.1823,-5.1833,-5.1841,-5.198,0,0,0,0,0,0,-5.1258,-5.128,-5.1339,-5.1352,-5.137,-5.1521,-5.1401,-5.1395,-5.1428,-5.1416,-5.1435,-5.1433,-5.1405,-5.1521,-5.1539,-5.1621,-5.1461,-5.1816,-5.1828,-5.1838,-5.1968,-5.1992,-5.2014,0,0,0,0,0,-5.1251,-5.1375,-5.1342,-5.1361,-5.1443,-5.1526,-5.1536,-5.1502,-5.1436,-5.1494,-5.149,-5.1432,-5.1603,-5.1533,-5.1552,-5.1638,-5.181,-5.1824,-5.1837,-5.1957,-5.1988,-5.2013,0,0,0,0,0,0,-5.1371,-5.1376,-5.134,-5.1472,-5.15,-5.1507,-5.1579,-5.1535,-5.1581,-5.1567,-5.1523,-5.1528,-5.1647,-5.1654,-5.1576,-5.179,-5.1695,-5.1713,-5.178,-5.1809,-5.1831,-5.1826,-5.1468,0,0,0,0,0,-5.1414,-5.1481,-5.1482,-5.1599,-5.1614,-5.1596,-5.163,-5.1602,-5.1628,-5.1639,-5.1643,-5.167,-5.173,-5.177,-5.1825,-5.1969,-5.1972,-5.2038,-5.2061,-5.208,-5.2095,-5.2172,-5.2201,-5.1888,-5.1888,-5.1888,0,0,-5.1501,-5.1512,-5.1557,-5.1623,-5.1641,-5.1711,-5.1606,-5.1684,-5.1736,-5.1651,-5.1754,-5.1759,-5.1787,-5.1916,-5.1972,-5.1925,-5.2183,-5.2097,-5.2112,-5.2117,-5.2189,-5.2218,-5.2245,-5.1897,-5.1896,-5.1894,0,0,-5.1696,-5.1712,-5.1811,-5.1831,-5.186,-5.1847,-5.1871,-5.1886,-5.1886,-5.199,-5.1928,-5.1989,-5.2093,-5.2116,-5.2141,-5.2348,-5.2296,-5.2367,-5.2486,-5.2561,-5.2586,-5.2607,-5.268,-5.2707,-5.2383,-5.2383,-5.2384,0,-5.1801,-5.1904,-5.1867,-5.1951,-5.1982,-5.1909,-5.2009,-5.2031,-5.2077,-5.2099,-5.2046,-5.2176,-5.219,-5.2322,-5.2373,-5.2396,-5.2422,-5.2363,-5.2585,-5.2607,-5.2626,-5.2695,-5.2723,-5.2392,-5.2391,-5.239,-5.2389,0,-5.2031,-5.2105,-5.2181,-5.2227,-5.2267,-5.2359,-5.2336,-5.2381,-5.235,-5.2343,-5.2451,-5.2466,-5.2522,-5.2552,-5.2522,-5.2681,-5.265,-5.2593,-5.2496,-5.2665,-5.2729,-5.2755,-5.2404,-5.2401,-5.2398,-5.2396,0,0,-5.23,-5.2327,-5.2355,-5.2375,-5.2403,-5.2459,-5.2549,-5.2604,-5.2643,-5.2678,-5.2751,-5.2842,-5.2789,-5.2818,-5.2791,-5.2858,-5.302,-5.2791,-5.2791,-5.2832,-5.3195,-5.3236,-5.3268,-5.2987,-5.2992,-5.2996,-5.3192,0,-5.2492,-5.2644,-5.2615,-5.2764,-5.2831,-5.2765,-5.2843,-5.2869,-5.2865,-5.2922,-5.2918,-5.2983,-5.2908,-5.2925,-5.2989,-5.2987,-5.3092,-5.2972,-5.3053,-5.3057,-5.3046,-5.3301,-5.3345,-5.3529,-5.3217,-5.3221,-5.3224,0,-5.2735,-5.278,-5.2936,-5.2954,-5.2981,-5.3051,-5.3101,-5.3156,-5.3185,-5.3177,-5.3212,-5.3172,-5.3261,-5.3167,-5.3288,-5.3208,-5.324,-5.3245,-5.3251,-5.3255,-5.3149,-5.331,-5.3587,-5.3614,-5.3263,-5.326,-5.3257,0,-5.2914,-5.3013,-5.3119,-5.3139,-5.3163,-5.3214,-5.3227,-5.325,-5.3286,-5.333,-5.3353,-5.3407,-5.3435,-5.3478,-5.3455,-5.3388,-5.3581,-5.3484,-5.3577,-5.3577,-5.3617,-5.3615,-5.3901,-5.3643,-5.3642,-5.3642,-5.3641,0,-5.3129,-5.3227,-5.32,-5.3265,-5.3373,-5.3339,-5.3447,-5.3452,-5.3474,-5.3538,-5.3486,-5.3548,-5.3514,-5.3574,-5.3557,-5.366,-5.3674,-5.367,-5.3664,-5.3674,-5.3674,-5.3692,-5.3678,-5.3649,-5.3647,-5.3646,-5.3645,0,-5.3345,-5.3331,-5.3442,-5.3457,-5.3463,-5.3542,-5.3555,-5.3616,-5.361,-5.3693,-5.3711,-5.3701,-5.3769,-5.3751,-5.3825,-5.3813,-5.3943,-5.3922,-5.3933,-5.3927,-5.402,-5.4011,-5.4326,-5.4365,-5.4084,-5.4086,-5.4089,0,-5.3482,-5.3556,-5.358,-5.362,-5.3636,-5.3702,-5.3738,-5.3709,-5.375,-5.3789,-5.3846,-5.391,-5.3958,-5.407,-5.407,-5.4126,-5.4105,-5.4212,-5.4113,-5.412,-5.4104,-5.4099,-5.4106,-5.423,-5.4233,-5.4236,-5.4238,0,-5.3727,-5.3717,-5.3772,-5.3826,-5.3872,-5.3912,-5.3948,-5.3984,-5.3958,-5.4006,-5.4076,-5.4114,-5.419,-5.4254,-5.4306,-5.4319,-5.4275,-5.427,-5.4294,-5.4303,-5.4306,-5.4304,-5.3984,-5.4262,-5.426,-5.4258,-5.4257,-5.4256,-5.3906,-5.3968,-5.3995,-5.4059,-5.4083,-5.4119,-5.4177,-5.4179,-5.4236,-5.4296,-5.4276,-5.4356,-5.4384,-5.445,-5.447,-5.4531,-5.449,-5.4526,-5.4534,-5.4543,-5.4554,-5.4299,-5.4541,-5.454,-5.454,-5.4539,-5.4539,0,-5.4146,-5.4161,-5.422,-5.4272,-5.4323,-5.4279,-5.4317,-5.4362,-5.4432,-5.4463,-5.4513,-5.4593,-5.4655,-5.4661,-5.472,-5.4768,-5.4749,-5.4784,-5.4779,-5.4783,-5.4587,-5.456,-5.4799,-5.4798,-5.4798,-5.4798,-5.4798,-5.4798,-5.4276,-5.438,-5.4374,-5.4489,-5.4503,-5.4581,-5.4606,-5.4639,-5.4663,-5.4755,-5.4807,-5.4811,-5.4832,-5.4892,-5.4947,-5.4947,-5.4971,-5.5013,-5.5006,-5.4822,-5.4796,-5.4772,-5.4745,-5.5019,-5.5019,-5.5195,-5.5197,-5.5198]},{"header":{"parameterUnit":"m.s-1","parameterCategory":1,"la1":30.2991,"la2":30.254,"lo1":-89.0895,"lo2":-89.0444,"dy":0.0017,"dx":0.0017,"nx":28,"ny":28,"refTime":"2023-10-25T03:00:00:Z","depth":0,"parameterNumber":3,"parameterNumberName":"V-component_of_WINDS"},"data":[0,0,0,0,0,0,0,0,0,0,0,0,0,0,0,0,0,0,0,0,0,0,0,0,0,0,0,0,0,0,0,0,0,0,0,0,0,0,0,0,0,0,0,0,0,0,0,0,0,0,0,0,0,0,0,0,0,0,1.8045,1.8045,0,1.8081,1.8081,1.8081,1.8022,1.802,1.8018,1.8016,1.8052,1.8055,1.8058,0,0,0,0,0,0,0,0,0,0,0,0,0,1.7927,1.7929,1.8045,1.8045,1.8046,1.8081,1.8081,1.8081,1.8022,1.802,1.8017,1.8015,1.8051,1.8054,1.8058,0,0,0,0,0,0,0,0,0,0,0,0,0,1.7972,1.793,1.8045,1.802,1.8019,1.808,1.8081,1.8082,1.8023,1.802,1.8017,1.8014,1.805,1.8054,1.8058,1.8145,0,0,1.8071,1.8073,0,0,0,0,0,0,0,0,1.797,1.7976,1.8024,1.8022,1.802,1.8044,1.8053,1.8103,1.8024,1.8021,1.8016,1.8012,1.8052,1.8056,1.8069,1.8147,1.8149,1.8072,1.8074,1.8076,1.8077,0,0,0,0,0,0,0,1.7966,1.7975,1.8059,1.8024,1.8022,1.8008,1.8011,1.8062,1.8053,1.8021,1.8017,1.8022,1.805,1.8065,1.8069,1.8149,1.8072,1.8075,1.8078,1.808,1.8304,1.8307,0,0,0,0,0,0,1.7966,1.7972,1.8058,1.806,1.7987,1.8013,1.8016,1.8039,1.8052,1.8051,1.8025,1.8019,1.8059,1.8064,1.807,1.8175,1.8076,1.808,1.8083,1.83,1.8304,1.8308,0,0,0,0,0,0,1.7964,1.7974,1.8056,1.8015,1.8024,1.8018,1.8044,1.8042,1.8056,1.8055,1.8053,1.8041,1.8057,1.8064,1.8128,1.8175,1.8082,1.8086,1.8296,1.8302,1.8306,1.8384,0,0,0,0,0,0,1.7961,1.7974,1.8006,1.8016,1.8027,1.8113,1.8047,1.8044,1.8064,1.8057,1.807,1.8069,1.8055,1.8122,1.8132,1.818,1.8089,1.8292,1.8299,1.8305,1.8377,1.8391,1.8403,0,0,0,0,0,1.7957,1.8026,1.8008,1.8019,1.8067,1.8116,1.8122,1.8104,1.8068,1.8101,1.8101,1.8069,1.8169,1.8129,1.814,1.8189,1.8289,1.8297,1.8304,1.8371,1.8388,1.8403,0,0,0,0,0,0,1.802,1.8027,1.8007,1.8081,1.8099,1.8106,1.8146,1.8123,1.815,1.8143,1.812,1.8123,1.8192,1.8197,1.8152,1.8276,1.8223,1.8233,1.827,1.8286,1.8299,1.8296,1.8093,0,0,0,0,0,1.8043,1.8082,1.8085,1.8151,1.8161,1.8153,1.8173,1.8158,1.8175,1.8182,1.8186,1.8204,1.8239,1.8263,1.8295,1.8378,1.8381,1.8417,1.843,1.8441,1.845,1.8497,1.8514,1.8333,1.8333,1.8333,0,0,1.8091,1.8099,1.8124,1.8164,1.8175,1.8217,1.8159,1.8204,1.8235,1.8189,1.8249,1.8254,1.8272,1.8346,1.8379,1.8352,1.8501,1.8451,1.8459,1.8463,1.8506,1.8524,1.8539,1.8338,1.8337,1.8337,0,0,1.8198,1.8208,1.8264,1.8278,1.8297,1.8292,1.8306,1.8317,1.8318,1.8379,1.8346,1.8383,1.8444,1.8459,1.8475,1.8592,1.8565,1.8603,1.8671,1.8717,1.8731,1.8743,1.8787,1.8803,1.8613,1.8613,1.8613,0,1.8254,1.8315,1.8296,1.8345,1.8365,1.8326,1.8384,1.8398,1.8427,1.8441,1.8411,1.8489,1.8499,1.8577,1.8606,1.862,1.8636,1.8601,1.873,1.8743,1.8754,1.8795,1.8812,1.8617,1.8617,1.8616,1.8616,0,1.8384,1.8427,1.8471,1.8501,1.8525,1.8579,1.8569,1.8596,1.858,1.8579,1.8643,1.8653,1.8688,1.8706,1.869,1.8783,1.8766,1.8734,1.868,1.8776,1.8815,1.883,1.8624,1.8622,1.8621,1.862,0,0,1.853,1.8552,1.8568,1.8583,1.8603,1.8636,1.8689,1.8724,1.8748,1.877,1.8815,1.8869,1.884,1.8858,1.8844,1.8885,1.898,1.8847,1.8848,1.8873,1.9085,1.911,1.9129,1.8962,1.8965,1.8967,1.9084,0,1.8638,1.8729,1.8716,1.8804,1.8845,1.8811,1.8857,1.8875,1.8875,1.8911,1.8911,1.8951,1.8909,1.892,1.8958,1.896,1.9022,1.8951,1.9004,1.9006,1.9001,1.9148,1.9174,1.9284,1.9099,1.9101,1.9103,0,1.8776,1.8805,1.8898,1.8914,1.8931,1.8972,1.9005,1.9039,1.906,1.9057,1.908,1.906,1.9114,1.906,1.9135,1.9087,1.9108,1.9113,1.9117,1.9121,1.9061,1.9158,1.9318,1.9335,1.9126,1.9125,1.9123,0,1.8875,1.8937,1.9001,1.9015,1.9035,1.9066,1.9075,1.9093,1.9116,1.9145,1.916,1.9195,1.9214,1.9242,1.9233,1.9194,1.9311,1.9255,1.9312,1.9312,1.9337,1.9336,1.9504,1.935,1.935,1.935,1.9349,0,1.8997,1.9056,1.9047,1.9086,1.9151,1.9136,1.9201,1.9207,1.9224,1.9264,1.9237,1.9276,1.926,1.9299,1.9292,1.9357,1.9365,1.9366,1.9363,1.9369,1.9369,1.9382,1.9375,1.9354,1.9353,1.9352,1.9351,0,1.9119,1.9115,1.9183,1.9198,1.9203,1.9251,1.9263,1.9301,1.9301,1.9353,1.9365,1.9364,1.9409,1.9402,1.9451,1.9446,1.9528,1.9515,1.9521,1.9518,1.9576,1.9571,1.9759,1.9784,1.9613,1.9614,1.9616,0,1.9197,1.9242,1.9262,1.9288,1.9301,1.9342,1.9367,1.9354,1.9381,1.941,1.9445,1.9487,1.952,1.9592,1.9597,1.9635,1.9624,1.9687,1.9629,1.9634,1.9626,1.9624,1.963,1.9699,1.9701,1.9702,1.9703,0,1.9337,1.9334,1.937,1.9407,1.9437,1.9465,1.949,1.9513,1.9504,1.9535,1.9581,1.9607,1.9658,1.9701,1.9737,1.9748,1.9725,1.9722,1.9737,1.9743,1.9745,1.9747,1.9553,1.9718,1.9716,1.9715,1.9714,1.9714,1.944,1.9479,1.9501,1.9543,1.9561,1.9587,1.9624,1.9629,1.9667,1.9709,1.9699,1.9752,1.9774,1.982,1.9836,1.9877,1.9854,1.9875,1.9881,1.9887,1.9894,1.9739,1.9883,1.9883,1.9882,1.9882,1.9882,0,1.958,1.9593,1.9632,1.967,1.9704,1.968,1.9708,1.9738,1.9784,1.9807,1.9841,1.9895,1.9938,1.9947,1.9987,2.0019,2.001,2.003,2.0028,2.0031,1.9912,1.9895,2.0037,2.0037,2.0037,2.0037,2.0037,2.0037,1.9657,1.9723,1.9723,1.9798,1.9811,1.9862,1.9881,1.9904,1.9923,1.9985,2.002,2.0026,2.0044,2.0087,2.0125,2.0127,2.0144,2.0169,2.0167,2.0055,2.0039,2.0025,2.0009,2.0172,2.0173,2.0283,2.0284,2.0285]}]]